Location: Newark
(54.8972°N, 99.8189°W)
Time: 11:00:21
(UTC+00:00)

Transit 2A - Pass Details

Date: 16 November 2019
Orbit: 602 x 957 km, 66.7° (Epoch: 08 December)

Event Time Altitude Azimuth Distance (km) Brightness Sun altitude
Rises 02:05:16 0° 315° (NW) 2,912 9.8 -29.6°
Reaches altitude 10° 02:07:45 10° 326° (NW) 1,979 8.6 -30.0°
Enters shadow 02:09:20 19° 339° (NNW) 1,454 7.7 -30.2°
